Regional Weather Roundup
Issued by NWS

Home | Current Version | Previous Version | Graphics & Text | Print | Product List | Glossary On
Versions: 1 2 3 4 5 6 7 8 9 10 11 12 13 14 15 16 17 18 19 20 21 22 23 24 25 26 27 28 29 30 31 32 33 34 35 36 37 38 39 40 41 42 43 44 45 46 47 48 49 50
000
ASUS45 KABQ 180210
RWRNM
WEATHER ROUNDUP FOR NEW MEXICO
NATIONAL WEATHER SERVICE ALBUQUERQUE NM
800 PM MDT FRI APR 17 2015

NOTE: "FAIR" MEANS FEW OR NO CLOUDS BELOW 12,000 FEET AGL WITH NO
       SIGNIFICANT WEATHER OR OBSTRUCTIONS TO VISION.

      THIS PRODUCT IS RELEASED AS TWO VERSIONS.  ONE VERSION NEAR
      THE TOP OF THE HOUR CONTAINING PRELIMINARY DATA FROM ALBUQUERQUE
      AND OTHER STATIONS.  A FINAL VERSION WITH ADDITIONAL DATA IS
      ISSUED ABOUT 10 MINUTES AFTER THE HOUR.

NMZ501-503-504-510>518-180300-
NORTHWEST PLATEAU/NORTHCENTRAL MOUNTAINS

CITY           SKY/WX    TMP DP  RH WIND       PRES   REMARKS
FARMINGTON     CLOUDY    43  25  49 W10       30.02S
LOS ALAMOS     PTCLDY    38  15  38 CALM      30.05S
SANTA FE       CLOUDY    42  16  34 W3        30.02S
ANGEL FIRE     CLOUDY    32  18  56 SW10      30.04S WCI  23

$$
NMZ402-403-502-505>509-180300-
WESTCENTRAL MOUNTAINS/SOUTHWEST MOUNTAINS

CITY           SKY/WX    TMP DP  RH WIND       PRES   REMARKS
GALLUP         CLOUDY    45  20  36 W14       30.04R
GRANTS         CLOUDY    39  22  48 N3        30.06R
SILVER CITY      N/A     55   5  13 W13       30.05R

$$
NMZ407-409-411-412-180300-
SOUTHERN DESERTS

CITY           SKY/WX    TMP DP  RH WIND       PRES   REMARKS
LORDSBURG      FAIR      61   9  12 NW8       30.00R
DEMING         CLEAR     61   4  10 NW12      29.99R
LAS CRUCES     CLEAR     61   5  11 W16       29.99S
HOLLOMAN AFB   PTCLDY    60  10  13 S8        29.95R
ALAMOGORDO     PTCLDY    57  10  15 S7        29.97R
T OR C         PTCLDY    61  16  17 NW14      29.97R

$$
NMZ519>523-180300-
CENTRAL VALLEYS/CENTRAL HIGHLANDS

CITY           SKY/WX    TMP DP  RH WIND       PRES   REMARKS
ALBUQUERQUE    MOCLDY    50  17  27 NW16      30.03R
DOUBLE EAGLE   MOCLDY    45  21  39 NW14      30.04R
MORIARTY ARPT  FAIR      42  15  33 NW8       30.04S
CLINES CORNERS PTCLDY    38  16  40 NW10      30.02R WCI  31
BELEN          FAIR      49  18  29 N8        30.02R
SOCORRO        FAIR      54  13  19 CALM      29.99R

$$
NMZ524>526-539-540-180300-
SOUTHCENTRAL MOUNTAINS

CITY           SKY/WX    TMP DP  RH WIND       PRES   REMARKS
RUIDOSO        CLEAR     45  10  24 SW8       30.06R

$$
NMZ527>531-180300-
NORTHEAST HIGHLANDS/NORTHEAST PLAINS

CITY           SKY/WX    TMP DP  RH WIND       PRES   REMARKS
LAS VEGAS      PTCLDY    37  16  42 W9        30.01R WCI  30
RATON          CLOUDY    43  24  47 NW8       29.95R
CLAYTON        PTCLDY    51  14  22 W5        29.94R

$$
NMZ532>537-180300-
EASTCENTRAL PLAINS

CITY           SKY/WX    TMP DP  RH WIND       PRES   REMARKS
TUCUMCARI      CLEAR     55  10  16 NW10      29.92R
CANNON AFB     NOT AVBL
CLOVIS AIRPORT CLEAR     54  19  26 W9        29.94R

$$
NMZ028-029-538-180300-
SOUTHEAST PLAINS

CITY           SKY/WX    TMP DP  RH WIND       PRES   REMARKS
ROSWELL        CLEAR     61  18  18 NW7       29.93R
ARTESIA        CLEAR     59  18  20 SW9       29.95R
CARLSBAD       CLEAR     60  15  17 W13       29.92R
HOBBS          CLEAR     57  32  38 W8        29.95R


$$


USA.gov is the U.S. government's official web portal to all federal, state and local government web resources and services.